M I D A S
Marine Information and Data Acquisition System
Tripno 934 of the Zeeleeuw from 2005-08-24 05:00:00 to 2005-08-24 13:30:53
Back to CruiseResearch ActivitiesStationsMapUnderway DataData graphs

EquipmentUnitsComments
TimeDGPSUTC
LatitudeDGPSDM.mWGS84
LongitudeDGPSDM.mWGS84
SpeedMeteo Stationm/sRelative wind speed
DirectionMeteo StationdegRelative wind direction
TemperatureMeteo Stationdeg CelciusAir temperature
PressureMeteo StationPaAtmospheric pressure
HumidityMeteo Station%Relative humidity
Missing or incorrect values are displayed as -999
Metereological data collected by the RV Zeeleeuw from 2005-08-24 05:00:00 to 2005-08-24 13:34:21
                                                                                    Next 1000 lines
Time Latitude Longitude Speed Direction Temperature Pressure Humidity
2005-08-24 05:52:30 51°13.599 2°56.097 1.9 95 12.7 101400 99
2005-08-24 05:52:35 51°13.599 2°56.097 2.5 111 12.6 101400 99
2005-08-24 05:52:40 51°13.599 2°56.097 2.5 103 12.6 101400 99
2005-08-24 05:52:44 51°13.599 2°56.097 2 104 12.6 101400 99
2005-08-24 05:52:49 51°13.599 2°56.097 2.2 68 12.6 101400 99
2005-08-24 05:52:54 51°13.599 2°56.097 1.8 65 12.6 101400 99
2005-08-24 05:52:59 51°13.599 2°56.097 2.2 63 12.6 101400 99
2005-08-24 05:53:04 51°13.599 2°56.097 2.4 59 12.6 101400 99
2005-08-24 05:53:07 51°13.599 2°56.097 2 62 12.6 101400 99
2005-08-24 05:53:12 51°13.599 2°56.097 2.2 31 12.7 101400 99
2005-08-24 05:53:17 51°13.599 2°56.097 2.3 45 12.7 101400 99
2005-08-24 05:53:25 51°13.599 2°56.096 1.7 63 12.7 101400 99
2005-08-24 05:53:30 51°13.598 2°56.104 2.6 56 12.7 101400 99
2005-08-24 05:53:35 51°13.597 2°56.105 2 51 12.7 101400 99
2005-08-24 05:53:40 51°13.597 2°56.104 2.7 42 12.7 101400 99
2005-08-24 05:53:44 51°13.596 2°56.103 3.8 51 12.7 101400 99
2005-08-24 05:53:50 51°13.596 2°56.103 3.6 73 12.7 101400 99
2005-08-24 05:53:54 51°13.596 2°56.102 3.4 64 12.7 101400 99
2005-08-24 05:54:00 51°13.596 2°56.103 3.4 61 12.7 101400 99
2005-08-24 05:54:05 51°13.596 2°56.102 4.1 90 12.7 101400 99
2005-08-24 05:54:09 51°13.595 2°56.102 2 82 12.7 101400 99
2005-08-24 05:54:14 51°13.595 2°56.1 2.2 50 12.7 101400 99
2005-08-24 05:54:20 51°13.595 2°56.1 2.9 53 12.7 101400 99
2005-08-24 05:54:25 51°13.595 2°56.1 3.1 33 12.7 101400 99
2005-08-24 05:54:30 51°13.595 2°56.099 2.9 51 12.7 101400 99
2005-08-24 05:54:34 51°13.596 2°56.099 3.1 43 12.7 101400 99
2005-08-24 05:54:40 51°13.596 2°56.099 2.9 93 12.7 101400 99
2005-08-24 05:54:45 51°13.596 2°56.099 2.5 80 12.7 101400 99
2005-08-24 05:54:49 51°13.597 2°56.099 2.4 44 12.7 101400 99
2005-08-24 05:54:54 51°13.597 2°56.099 2.4 38 12.7 101400 99
2005-08-24 05:54:59 51°13.597 2°56.099 3.2 68 12.7 101400 99
2005-08-24 05:55:05 51°13.597 2°56.099 2.5 88 12.7 101400 99
2005-08-24 05:55:10 51°13.597 2°56.099 2.4 100 12.7 101400 99
2005-08-24 05:55:14 51°13.597 2°56.099 2.3 108 12.7 101400 99
2005-08-24 05:55:20 51°13.597 2°56.099 2.6 68 12.7 101400 99
2005-08-24 05:55:25 51°13.597 2°56.099 2.3 56 12.7 101400 99
2005-08-24 05:55:30 51°13.597 2°56.099 3.9 36 12.7 101400 99
2005-08-24 05:55:34 51°13.597 2°56.099 3.2 36 12.7 101400 99
2005-08-24 05:55:40 51°13.597 2°56.099 3.3 35 12.7 101400 99
2005-08-24 05:55:45 51°13.597 2°56.099 2.8 44 12.7 101400 99
2005-08-24 05:55:50 51°13.597 2°56.099 2.4 44 12.7 101400 99
2005-08-24 05:55:55 51°13.597 2°56.099 2.8 57 12.7 101400 99
2005-08-24 05:56:00 51°13.597 2°56.099 2.5 60 12.7 101400 99
2005-08-24 05:56:05 51°13.597 2°56.099 2.7 63 12.7 101400 99
2005-08-24 05:56:10 51°13.597 2°56.099 2.8 58 12.7 101400 99
2005-08-24 05:56:14 51°13.597 2°56.099 2.4 70 12.7 101400 99
2005-08-24 05:56:20 51°13.597 2°56.099 2.7 42 12.7 101400 99
2005-08-24 05:56:25 51°13.597 2°56.099 2.8 59 12.7 101400 99
2005-08-24 05:56:29 51°13.597 2°56.099 3.5 39 12.7 101400 99
2005-08-24 05:56:35 51°13.597 2°56.099 3.2 58 12.7 101400 98
2005-08-24 05:56:40 51°13.597 2°56.099 2.8 54 12.7 101400 98
2005-08-24 05:56:45 51°13.597 2°56.099 2.6 62 12.7 101400 98
2005-08-24 05:56:50 51°13.597 2°56.099 1.9 84 12.7 101400 98
2005-08-24 05:56:54 51°13.597 2°56.099 3.1 95 12.7 101400 99
2005-08-24 05:57:00 51°13.597 2°56.099 2.7 98 12.7 101400 99
2005-08-24 05:57:05 51°13.597 2°56.099 3.1 94 12.7 101400 99
2005-08-24 05:57:10 51°13.597 2°56.099 2.4 101 12.7 101400 99
2005-08-24 05:57:14 51°13.597 2°56.099 2.7 35 12.8 101400 99
2005-08-24 05:57:20 51°13.597 2°56.099 2.6 38 12.8 101400 99
2005-08-24 05:57:25 51°13.597 2°56.099 3.9 54 12.8 101400 99
2005-08-24 05:57:30 51°13.597 2°56.099 3.4 49 12.8 101400 99
2005-08-24 05:57:34 51°13.597 2°56.099 3.8 31 12.7 101400 99
2005-08-24 05:57:39 51°13.597 2°56.099 4.3 49 12.7 101400 99
2005-08-24 05:57:45 51°13.597 2°56.099 3.3 49 12.8 101400 99
2005-08-24 05:57:50 51°13.597 2°56.099 2.2 65 12.8 101400 99
2005-08-24 05:57:55 51°13.597 2°56.099 2.3 67 12.8 101400 99
2005-08-24 05:58:00 51°13.597 2°56.099 3.5 66 12.8 101400 99
2005-08-24 05:58:04 51°13.597 2°56.099 3.3 87 12.8 101390 98
2005-08-24 05:58:10 51°13.597 2°56.099 3.2 67 12.8 101390 98
2005-08-24 05:58:15 51°13.597 2°56.099 2.2 69 12.8 101390 98
2005-08-24 05:58:20 51°13.597 2°56.098 2.7 59 12.8 101390 98
2005-08-24 05:58:25 51°13.597 2°56.098 2.5 61 12.8 101400 98
2005-08-24 05:58:30 51°13.597 2°56.098 4.9 54 12.8 101400 98
2005-08-24 05:58:35 51°13.597 2°56.098 5.2 66 12.8 101400 98
2005-08-24 05:58:40 51°13.597 2°56.098 3.6 67 12.8 101400 98
2005-08-24 05:58:45 51°13.597 2°56.098 3.2 61 12.8 101390 98
2005-08-24 05:58:50 51°13.598 2°56.098 2.5 58 12.8 101390 98
2005-08-24 05:58:54 51°13.598 2°56.098 2.6 24 12.8 101390 98
2005-08-24 05:59:00 51°13.598 2°56.098 3.6 39 12.8 101390 98
2005-08-24 05:59:05 51°13.598 2°56.098 3.1 59 12.8 101390 98
2005-08-24 05:59:10 51°13.598 2°56.098 3.2 41 12.8 101390 98
2005-08-24 05:59:15 51°13.598 2°56.098 3.4 43 12.8 101390 98
2005-08-24 05:59:19 51°13.598 2°56.099 3.7 42 12.8 101390 98
2005-08-24 05:59:24 51°13.599 2°56.099 3.2 58 12.8 101390 98
2005-08-24 05:59:30 51°13.599 2°56.098 3.2 50 12.8 101390 98
2005-08-24 05:59:34 51°13.599 2°56.098 3.2 53 12.8 101390 98
2005-08-24 05:59:39 51°13.599 2°56.099 1.9 78 12.8 101390 98
2005-08-24 05:59:44 51°13.599 2°56.099 2.5 37 12.8 101390 98
2005-08-24 05:59:50 51°13.599 2°56.098 3.6 41 12.8 101390 98
2005-08-24 05:59:54 51°13.599 2°56.098 2.7 69 12.8 101390 98
2005-08-24 05:59:59 51°13.599 2°56.098 3.2 67 12.8 101390 98
2005-08-24 06:00:04 51°13.599 2°56.098 1.9 62 12.8 101390 98
2005-08-24 06:00:10 51°13.599 2°56.098 2.3 41 12.8 101390 98
2005-08-24 06:00:14 51°13.599 2°56.098 2.9 39 12.8 101390 98
2005-08-24 06:00:19 51°13.599 2°56.098 2.8 55 12.8 101390 98
2005-08-24 06:00:24 51°13.599 2°56.098 2.7 92 12.8 101390 98
2005-08-24 06:00:30 51°13.599 2°56.098 2.1 64 12.8 101390 98
2005-08-24 06:00:34 51°13.599 2°56.098 3.6 49 12.8 101390 98
2005-08-24 06:00:39 51°13.599 2°56.098 3.4 43 12.8 101390 98
2005-08-24 06:00:44 51°13.599 2°56.098 3.3 43 12.8 101390 98
2005-08-24 06:00:50 51°13.599 2°56.098 3.4 80 12.8 101390 98
2005-08-24 06:00:54 51°13.599 2°56.098 2.8 70 12.8 101390 98
2005-08-24 06:00:59 51°13.599 2°56.098 2.5 59 12.8 101390 98
2005-08-24 06:01:04 51°13.599 2°56.098 2.3 46 12.8 101390 98
2005-08-24 06:01:10 51°13.599 2°56.097 2.5 82 12.8 101390 98
2005-08-24 06:01:14 51°13.599 2°56.098 2.1 81 12.8 101390 98
2005-08-24 06:01:19 51°13.599 2°56.098 1.6 87 12.8 101390 98
2005-08-24 06:01:24 51°13.599 2°56.098 1.7 63 12.8 101390 98
2005-08-24 06:01:30 51°13.599 2°56.098 2.7 56 12.8 101390 98
2005-08-24 06:01:34 51°13.599 2°56.098 4.4 52 12.8 101390 98
2005-08-24 06:01:39 51°13.599 2°56.098 3.8 49 12.8 101390 98
2005-08-24 06:01:45 51°13.599 2°56.098 3.5 55 12.8 101390 98
2005-08-24 06:01:50 51°13.599 2°56.097 2.8 41 12.8 101390 98
2005-08-24 06:01:54 51°13.598 2°56.097 3.1 55 12.8 101390 98
2005-08-24 06:01:59 51°13.598 2°56.097 3.2 52 12.8 101390 98
2005-08-24 06:02:04 51°13.598 2°56.097 4 80 12.8 101390 98
2005-08-24 06:02:10 51°13.598 2°56.097 3.7 83 12.8 101390 98
2005-08-24 06:02:14 51°13.598 2°56.097 3.2 81 12.8 101380 98
2005-08-24 06:02:19 51°13.598 2°56.097 2.7 69 12.8 101380 98
2005-08-24 06:02:24 51°13.598 2°56.097 2.5 76 12.8 101380 98
2005-08-24 06:02:30 51°13.598 2°56.097 3.2 53 12.8 101380 98
2005-08-24 06:02:34 51°13.598 2°56.097 2.8 55 12.8 101390 98
2005-08-24 06:02:39 51°13.598 2°56.097 2 61 12.8 101390 98
2005-08-24 06:02:44 51°13.598 2°56.097 2.5 75 12.8 101390 98
2005-08-24 06:02:50 51°13.598 2°56.097 2.1 55 12.8 101390 98
2005-08-24 06:02:54 51°13.598 2°56.096 3.2 36 12.8 101390 98
2005-08-24 06:02:59 51°13.598 2°56.097 2.1 41 12.8 101390 98
2005-08-24 06:03:04 51°13.598 2°56.097 2.8 28 12.8 101390 98
2005-08-24 06:03:10 51°13.598 2°56.097 2.5 75 12.8 101390 98
2005-08-24 06:03:14 51°13.598 2°56.097 2.7 82 12.8 101380 98
2005-08-24 06:03:20 51°13.598 2°56.097 3.3 73 12.8 101380 98
2005-08-24 06:03:24 51°13.598 2°56.097 2.7 84 12.9 101380 98
2005-08-24 06:03:30 51°13.598 2°56.097 1.8 87 12.9 101380 98
2005-08-24 06:03:34 51°13.598 2°56.097 1.2 78 12.8 101380 98
2005-08-24 06:03:39 51°13.598 2°56.097 2 98 12.8 101380 98
2005-08-24 06:03:44 51°13.598 2°56.097 2.6 57 12.9 101390 98
2005-08-24 06:03:50 51°13.598 2°56.097 3.2 62 12.9 101390 98
2005-08-24 06:03:54 51°13.598 2°56.097 2.4 74 12.8 101380 98
2005-08-24 06:03:59 51°13.598 2°56.097 2.8 65 12.8 101380 98
2005-08-24 06:04:04 51°13.598 2°56.097 3.1 73 12.8 101390 98
2005-08-24 06:04:09 51°13.598 2°56.097 2.6 76 12.8 101390 98
2005-08-24 06:04:17 51°13.598 2°56.096 2.6 76 12.8 101390 98
2005-08-24 06:04:21 51°13.598 2°56.096 2.6 76 12.8 101390 98
2005-08-24 06:04:26 51°13.598 2°56.096 2.6 76 12.8 101390 98
2005-08-24 06:04:31 51°13.598 2°56.096 2.6 76 12.8 101390 98
2005-08-24 06:04:36 51°13.598 2°56.095 2.6 76 -999 -999 -999
2005-08-24 06:04:40 51°13.598 2°56.096 -999 -999 -999 -999 -999
2005-08-24 06:04:45 51°13.598 2°56.096 -999 -999 -999 -999 -999
2005-08-24 06:04:49 51°13.599 2°56.096 -999 -999 -999 -999 -999
2005-08-24 06:04:54 51°13.599 2°56.096 -999 37 -999 -999 -999
2005-08-24 06:04:59 51°13.599 2°56.096 2.3 37 -999 -999 -999
2005-08-24 06:05:03 51°13.599 2°56.096 2.3 43 -999 -999 -999
2005-08-24 06:05:09 51°13.599 2°56.096 2.9 42 -999 -999 -999
2005-08-24 06:05:14 51°13.599 2°56.096 2.4 68 12.7 -999 95
2005-08-24 06:05:19 51°13.599 2°56.096 2.3 79 12.7 -999 95
2005-08-24 06:05:24 51°13.599 2°56.096 2.3 33 12.9 -999 98
2005-08-24 06:05:29 51°13.599 2°56.096 2.6 67 12.9 -999 98
2005-08-24 06:05:34 51°13.599 2°56.096 2.6 56 12.9 101380 98
2005-08-24 06:05:39 51°13.598 2°56.097 2.3 87 12.9 101380 98
2005-08-24 06:05:42 51°13.598 2°56.097 2.2 67 12.9 101380 98
2005-08-24 06:05:49 51°13.597 2°56.097 2.6 40 12.9 101380 98
2005-08-24 06:05:54 51°13.597 2°56.096 3 43 12.9 101380 98
2005-08-24 06:05:59 51°13.597 2°56.096 4.2 66 12.9 101380 98
2005-08-24 06:06:04 51°13.597 2°56.096 4.9 74 12.9 101380 98
2005-08-24 06:06:09 51°13.597 2°56.096 4.7 82 12.9 101380 98
2005-08-24 06:06:14 51°13.597 2°56.096 3.5 85 12.9 101380 98
2005-08-24 06:06:19 51°13.597 2°56.096 4 44 12.9 101380 98
2005-08-24 06:06:23 51°13.597 2°56.097 3.9 61 12.9 101380 98
2005-08-24 06:06:29 51°13.597 2°56.097 4 74 12.9 101380 98
2005-08-24 06:06:34 51°13.597 2°56.097 3.8 84 12.9 101380 98
2005-08-24 06:06:38 51°13.597 2°56.097 3.3 80 12.9 101380 98
2005-08-24 06:06:43 51°13.597 2°56.096 3.3 73 12.9 101380 98
2005-08-24 06:06:49 51°13.597 2°56.097 3.1 85 12.9 101380 98
2005-08-24 06:06:54 51°13.597 2°56.097 3.2 60 12.9 101380 98
2005-08-24 06:06:59 51°13.597 2°56.096 2.6 81 12.9 101380 98
2005-08-24 06:07:03 51°13.597 2°56.097 2.2 82 12.9 101380 98
2005-08-24 06:07:09 51°13.597 2°56.097 1.8 68 12.9 101380 98
2005-08-24 06:07:14 51°13.597 2°56.096 1.8 55 12.9 101380 98
2005-08-24 06:07:18 51°13.597 2°56.097 2.7 83 12.9 101380 98
2005-08-24 06:07:24 51°13.597 2°56.096 2.2 95 12.9 101380 98
2005-08-24 06:07:29 51°13.597 2°56.096 2.8 46 12.9 101380 98
2005-08-24 06:07:34 51°13.597 2°56.097 2.7 37 12.9 101380 98
2005-08-24 06:07:39 51°13.597 2°56.097 3.2 77 12.9 101380 98
2005-08-24 06:07:42 51°13.597 2°56.097 3.4 78 12.9 101380 98
2005-08-24 06:07:49 51°13.597 2°56.097 3.8 76 12.9 101380 98
2005-08-24 06:07:54 51°13.597 2°56.097 4.1 64 13 101380 98
2005-08-24 06:07:59 51°13.597 2°56.096 2.8 54 13 101380 98
2005-08-24 06:08:04 51°13.597 2°56.097 2.8 67 13 101380 98
2005-08-24 06:08:09 51°13.597 2°56.097 2.9 62 13 101380 98
2005-08-24 06:08:14 51°13.597 2°56.097 2.6 64 13 101380 98
2005-08-24 06:08:19 51°13.597 2°56.097 2.7 62 13 101380 98
2005-08-24 06:08:22 51°13.597 2°56.097 1.7 86 12.9 101380 98
2005-08-24 06:08:30 51°13.597 2°56.096 2.5 52 12.9 101380 98
2005-08-24 06:08:34 51°13.597 2°56.096 3.1 80 13 101380 98
2005-08-24 06:08:39 51°13.596 2°56.096 2.2 61 13 101380 98
2005-08-24 06:08:43 51°13.596 2°56.097 2.3 44 13 101380 98
2005-08-24 06:08:49 51°13.596 2°56.096 3 101 13 101380 98
2005-08-24 06:08:54 51°13.596 2°56.097 2.3 87 13 101380 98
2005-08-24 06:08:59 51°13.596 2°56.097 2.3 20 13 101380 98
2005-08-24 06:09:04 51°13.596 2°56.096 3.2 61 12.9 101380 98
2005-08-24 06:09:10 51°13.596 2°56.096 3.7 64 12.9 101380 98
2005-08-24 06:09:14 51°13.596 2°56.096 3.8 75 13 101380 98
2005-08-24 06:09:19 51°13.596 2°56.097 3.7 65 13 101380 98
2005-08-24 06:09:24 51°13.596 2°56.097 3.6 65 13 101380 98
2005-08-24 06:09:29 51°13.596 2°56.097 1.9 61 13 101380 98
2005-08-24 06:09:34 51°13.596 2°56.096 3.1 42 13 101380 98
2005-08-24 06:09:39 51°13.596 2°56.097 1.8 54 13 101380 98
2005-08-24 06:09:43 51°13.596 2°56.097 2 93 13 101380 98
2005-08-24 06:09:49 51°13.597 2°56.097 2.4 61 13 101380 98
2005-08-24 06:09:54 51°13.597 2°56.096 2.9 94 13 101380 98
2005-08-24 06:09:58 51°13.597 2°56.096 2.7 112 13 101380 98
2005-08-24 06:10:04 51°13.597 2°56.097 2.7 63 13 101380 98
2005-08-24 06:10:09 51°13.597 2°56.096 2.5 90 13 101380 98
2005-08-24 06:10:14 51°13.597 2°56.097 2.2 64 13 101380 98
2005-08-24 06:10:19 51°13.596 2°56.097 2 66 13 101380 98
2005-08-24 06:10:24 51°13.597 2°56.097 1.6 77 13 101380 98
2005-08-24 06:10:29 51°13.597 2°56.097 2.1 102 13 101380 98
2005-08-24 06:10:34 51°13.597 2°56.097 2.1 73 13 101380 98
2005-08-24 06:10:39 51°13.597 2°56.097 2.2 68 13 101380 98
2005-08-24 06:10:43 51°13.597 2°56.097 2.2 86 13 101380 98
2005-08-24 06:10:49 51°13.597 2°56.096 2.4 96 13 101380 98
2005-08-24 06:10:54 51°13.597 2°56.096 3.3 75 13 101380 98
2005-08-24 06:10:58 51°13.597 2°56.096 2.8 67 13 101380 98
2005-08-24 06:11:03 51°13.597 2°56.096 2.7 99 13 101390 98
2005-08-24 06:11:09 51°13.597 2°56.096 2.2 67 13 101390 98
2005-08-24 06:11:14 51°13.597 2°56.096 2.5 13 13 101390 98
2005-08-24 06:11:18 51°13.597 2°56.096 2.8 42 13 101390 98
2005-08-24 06:11:23 51°13.597 2°56.096 3.3 54 13 101390 98
2005-08-24 06:11:29 51°13.597 2°56.096 4.4 55 13 101390 98
2005-08-24 06:11:34 51°13.597 2°56.096 4 62 13 101380 98
2005-08-24 06:11:39 51°13.597 2°56.096 3.4 55 13 101380 98
2005-08-24 06:11:42 51°13.597 2°56.096 3.6 84 13.1 101380 98
2005-08-24 06:11:50 51°13.597 2°56.096 2.4 59 13.1 101380 98
2005-08-24 06:11:54 51°13.597 2°56.096 3.2 58 13.1 101380 98
2005-08-24 06:11:59 51°13.597 2°56.096 3.3 51 13.1 101380 98
2005-08-24 06:12:04 51°13.597 2°56.096 3.1 65 13.1 101380 98
2005-08-24 06:12:09 51°13.598 2°56.096 2.7 86 13.1 101380 98
2005-08-24 06:12:14 51°13.598 2°56.096 1.8 91 13.1 101390 98
2005-08-24 06:12:19 51°13.598 2°56.096 3.1 54 13.1 101390 98
2005-08-24 06:12:22 51°13.597 2°56.096 2.4 64 13.1 101380 98
2005-08-24 06:12:29 51°13.597 2°56.097 2.7 79 13.1 101380 98
2005-08-24 06:12:34 51°13.597 2°56.097 3.5 56 13.1 101380 98
2005-08-24 06:12:39 51°13.597 2°56.097 3.7 70 13.1 101380 98
2005-08-24 06:12:44 51°13.597 2°56.096 3.3 96 13.1 101390 98
2005-08-24 06:12:49 51°13.597 2°56.096 3.4 61 13.1 101390 98
2005-08-24 06:12:54 51°13.597 2°56.097 3.4 56 13.1 101390 98
2005-08-24 06:12:59 51°13.597 2°56.096 2.7 74 13.1 101390 98
2005-08-24 06:13:04 51°13.598 2°56.097 3.8 55 13.1 101390 98
2005-08-24 06:13:09 51°13.597 2°56.097 3.7 67 13.1 101390 98
2005-08-24 06:13:14 51°13.597 2°56.097 4.2 61 13.1 101390 98
2005-08-24 06:13:19 51°13.598 2°56.096 2.9 88 13.1 101390 98
2005-08-24 06:13:24 51°13.598 2°56.096 3.2 93 13.1 101390 98
2005-08-24 06:13:29 51°13.598 2°56.096 3.5 75 13.1 101390 98
2005-08-24 06:13:34 51°13.598 2°56.096 3 74 13.1 101390 98
2005-08-24 06:13:39 51°13.598 2°56.096 3.2 94 13.1 101390 98
2005-08-24 06:13:44 51°13.598 2°56.096 2.9 71 13.1 101390 98
2005-08-24 06:13:50 51°13.598 2°56.096 2.1 73 13.1 101390 98
2005-08-24 06:13:54 51°13.598 2°56.097 2.5 66 13.1 101390 98
2005-08-24 06:13:58 51°13.598 2°56.097 2.5 112 13.1 101390 98
2005-08-24 06:14:03 51°13.598 2°56.096 3.5 121 13.1 101390 98
2005-08-24 06:14:09 51°13.598 2°56.096 1.9 105 13.1 101390 98
2005-08-24 06:14:14 51°13.598 2°56.096 2.3 119 13.1 101390 98
2005-08-24 06:14:18 51°13.598 2°56.097 2.5 103 13.1 101390 98
2005-08-24 06:14:23 51°13.599 2°56.096 1.7 100 13.1 101390 98
2005-08-24 06:14:29 51°13.598 2°56.096 2.6 91 13.1 101390 98
2005-08-24 06:14:34 51°13.598 2°56.096 3.2 69 13.1 101390 98
2005-08-24 06:14:39 51°13.598 2°56.096 3.2 72 13.1 101390 98
2005-08-24 06:14:42 51°13.598 2°56.096 3.4 59 13.1 101390 98
2005-08-24 06:14:49 51°13.598 2°56.096 3.1 82 13.1 101390 98
2005-08-24 06:14:54 51°13.598 2°56.096 3.1 107 13.1 101390 98
2005-08-24 06:14:59 51°13.598 2°56.096 2.8 88 13.1 101390 98
2005-08-24 06:15:03 51°13.598 2°56.096 2.2 82 13.2 101390 98
2005-08-24 06:15:09 51°13.598 2°56.096 2.6 82 13.2 101390 98
2005-08-24 06:15:14 51°13.598 2°56.096 2.2 78 13.2 101390 98
2005-08-24 06:15:19 51°13.598 2°56.097 1.6 79 13.2 101390 98
2005-08-24 06:15:23 51°13.598 2°56.097 2.1 69 13.2 101390 98
2005-08-24 06:15:29 51°13.598 2°56.097 2.4 42 13.2 101390 98
2005-08-24 06:15:34 51°13.598 2°56.096 2.4 67 13.2 101380 98
2005-08-24 06:15:39 51°13.598 2°56.096 2.6 78 13.2 101380 98
2005-08-24 06:15:45 51°13.598 2°56.096 1.7 79 13.2 101380 98
2005-08-24 06:15:49 51°13.598 2°56.096 1.5 77 13.2 101380 98
2005-08-24 06:15:54 51°13.598 2°56.096 1.5 88 13.2 101390 98
2005-08-24 06:15:59 51°13.598 2°56.096 3 114 13.2 101390 98
2005-08-24 06:16:04 51°13.597 2°56.096 1.8 113 13.2 101390 98
2005-08-24 06:16:09 51°13.597 2°56.096 2.3 94 13.2 101390 98
2005-08-24 06:16:14 51°13.597 2°56.096 2.1 102 13.2 101390 97
2005-08-24 06:16:19 51°13.597 2°56.096 3.9 70 13.2 101390 97
2005-08-24 06:16:24 51°13.597 2°56.096 2.8 95 13.2 101390 97
2005-08-24 06:16:29 51°13.597 2°56.096 2.5 64 13.2 101390 97
2005-08-24 06:16:34 51°13.597 2°56.097 2.1 55 13.2 101390 97
2005-08-24 06:16:39 51°13.597 2°56.096 2.2 61 13.2 101390 97
2005-08-24 06:16:43 51°13.597 2°56.096 2.5 99 13.2 101380 97
2005-08-24 06:16:49 51°13.597 2°56.097 2.7 96 13.2 101380 97
2005-08-24 06:16:54 51°13.597 2°56.097 2.6 95 13.2 101380 97
2005-08-24 06:16:59 51°13.596 2°56.097 1.8 51 13.2 101380 97
2005-08-24 06:17:03 51°13.596 2°56.098 2 53 13.2 101390 97
2005-08-24 06:17:09 51°13.596 2°56.098 1.9 77 13.2 101390 97
2005-08-24 06:17:14 51°13.595 2°56.098 2.7 70 13.2 101380 97
2005-08-24 06:17:19 51°13.595 2°56.098 2.9 101 13.2 101380 97
2005-08-24 06:17:23 51°13.595 2°56.098 2.6 101 13.2 101380 97
2005-08-24 06:17:29 51°13.595 2°56.098 2.6 104 13.2 101380 97
2005-08-24 06:17:34 51°13.595 2°56.097 2.6 105 13.2 101380 97
2005-08-24 06:17:39 51°13.595 2°56.097 2.1 98 13.2 101380 97
2005-08-24 06:17:43 51°13.595 2°56.097 3.1 73 13.2 101390 97
2005-08-24 06:17:49 51°13.595 2°56.097 2.3 54 13.2 101390 97
2005-08-24 06:17:54 51°13.595 2°56.097 1.8 71 13.2 101380 97
2005-08-24 06:17:58 51°13.595 2°56.097 1.6 73 13.2 101380 97
2005-08-24 06:18:04 51°13.596 2°56.097 1.7 63 13.2 101390 97
2005-08-24 06:18:10 51°13.596 2°56.097 2.3 41 13.2 101390 97
2005-08-24 06:18:14 51°13.596 2°56.097 1.9 57 13.2 101390 97
2005-08-24 06:18:19 51°13.596 2°56.097 2.7 86 13.2 101390 97
2005-08-24 06:18:22 51°13.596 2°56.097 3.9 96 13.2 101390 97
2005-08-24 06:18:29 51°13.596 2°56.097 3.8 99 13.2 101390 97
2005-08-24 06:18:34 51°13.597 2°56.097 4.2 103 13.2 101390 97
2005-08-24 06:18:39 51°13.597 2°56.097 4.9 93 13.2 101390 97
2005-08-24 06:18:44 51°13.597 2°56.097 2.9 110 13.3 101380 97
2005-08-24 06:18:49 51°13.597 2°56.097 3.2 81 13.3 101380 97
2005-08-24 06:18:54 51°13.597 2°56.097 3.2 84 13.3 101380 97
2005-08-24 06:18:58 51°13.597 2°56.097 2.4 76 13.3 101380 97
2005-08-24 06:19:03 51°13.597 2°56.097 2.7 102 13.2 101390 97
2005-08-24 06:19:09 51°13.597 2°56.097 3.4 84 13.2 101390 97
2005-08-24 06:19:14 51°13.597 2°56.097 3.3 92 13.3 101390 97
2005-08-24 06:19:19 51°13.597 2°56.097 2.7 92 13.3 101390 97
2005-08-24 06:19:24 51°13.597 2°56.097 3.3 92 13.3 101380 97
2005-08-24 06:19:29 51°13.597 2°56.097 2.5 74 13.3 101380 97
2005-08-24 06:19:34 51°13.597 2°56.097 2 65 13.3 101380 97
2005-08-24 06:19:39 51°13.597 2°56.097 2.4 85 13.3 101380 97
2005-08-24 06:19:43 51°13.597 2°56.097 2.8 108 13.3 101390 97
2005-08-24 06:19:49 51°13.596 2°56.097 3.5 89 13.3 101390 97
2005-08-24 06:19:54 51°13.596 2°56.097 4.1 85 13.3 101380 97
2005-08-24 06:19:59 51°13.597 2°56.097 3.4 86 13.3 101380 97
2005-08-24 06:20:02 51°13.597 2°56.097 3.7 94 13.3 101380 97
2005-08-24 06:20:09 51°13.597 2°56.097 3.2 69 13.3 101380 97
2005-08-24 06:20:14 51°13.597 2°56.098 2.8 87 13.3 101390 97
2005-08-24 06:20:19 51°13.597 2°56.098 2.8 116 13.3 101390 97
2005-08-24 06:20:22 51°13.597 2°56.098 2.5 130 13.2 101380 97
2005-08-24 06:20:29 51°13.597 2°56.097 2.5 125 13.2 101380 97
2005-08-24 06:20:34 51°13.597 2°56.097 2.6 114 13.3 101390 97
2005-08-24 06:20:39 51°13.597 2°56.097 2.8 106 13.3 101390 97
2005-08-24 06:20:44 51°13.597 2°56.097 3 114 13.3 101380 97
2005-08-24 06:20:49 51°13.597 2°56.097 2.6 102 13.3 101380 97
2005-08-24 06:20:54 51°13.597 2°56.097 2.5 108 13.3 101380 97
2005-08-24 06:20:59 51°13.597 2°56.097 2.3 102 13.3 101380 97
2005-08-24 06:21:04 51°13.597 2°56.097 1.4 79 13.3 101380 97
2005-08-24 06:21:09 51°13.597 2°56.097 1.8 101 13.3 101380 97
2005-08-24 06:21:14 51°13.597 2°56.097 1.5 82 13.3 101390 97
2005-08-24 06:21:19 51°13.597 2°56.097 2.1 75 13.3 101390 97
2005-08-24 06:21:24 51°13.597 2°56.097 1.7 60 13.3 101380 97
2005-08-24 06:21:29 51°13.598 2°56.097 1.1 76 13.3 101380 97
2005-08-24 06:21:34 51°13.598 2°56.097 3.7 74 13.3 101380 97
2005-08-24 06:21:39 51°13.598 2°56.097 3.2 54 13.3 101380 97
2005-08-24 06:21:43 51°13.598 2°56.097 3.1 95 13.3 101390 97
2005-08-24 06:21:49 51°13.598 2°56.097 3 74 13.3 101390 97
2005-08-24 06:21:54 51°13.598 2°56.096 3.3 83 13.3 101390 97
2005-08-24 06:21:59 51°13.598 2°56.097 3.1 87 13.3 101390 97
2005-08-24 06:22:02 51°13.598 2°56.097 3.5 84 13.3 101390 97
2005-08-24 06:22:09 51°13.598 2°56.096 2.2 122 13.3 101390 97
2005-08-24 06:22:14 51°13.598 2°56.096 2.8 67 13.3 101390 97
2005-08-24 06:22:19 51°13.598 2°56.096 2.5 79 13.3 101390 97
2005-08-24 06:22:24 51°13.598 2°56.096 2.7 115 13.3 101390 97
2005-08-24 06:22:30 51°13.598 2°56.096 1.9 84 13.3 101390 97
2005-08-24 06:22:34 51°13.598 2°56.097 1.5 68 13.3 101390 97
2005-08-24 06:22:39 51°13.599 2°56.096 2.2 90 13.3 101390 97
2005-08-24 06:22:43 51°13.599 2°56.096 2.2 48 13.3 101390 97
2005-08-24 06:22:49 51°13.599 2°56.096 1.6 78 13.3 101390 97
2005-08-24 06:22:54 51°13.599 2°56.096 1.4 74 13.3 101390 97
2005-08-24 06:22:59 51°13.599 2°56.097 2 74 13.3 101390 97
2005-08-24 06:23:03 51°13.598 2°56.096 1.7 49 13.4 101390 97
2005-08-24 06:23:10 51°13.597 2°56.096 2.6 66 13.4 101390 97
2005-08-24 06:23:14 51°13.597 2°56.096 3.1 53 13.4 101390 97
2005-08-24 06:23:19 51°13.597 2°56.096 2.1 65 13.4 101390 97
2005-08-24 06:23:23 51°13.597 2°56.095 2 68 13.4 101390 97
2005-08-24 06:23:30 51°13.596 2°56.095 2.1 40 13.4 101390 97
2005-08-24 06:23:34 51°13.596 2°56.096 1.7 43 13.4 101390 97
2005-08-24 06:23:39 51°13.597 2°56.096 2.1 54 13.4 101390 97
2005-08-24 06:23:44 51°13.597 2°56.096 1.7 65 13.4 101390 97
2005-08-24 06:23:49 51°13.597 2°56.096 1.4 89 13.4 101390 97
2005-08-24 06:23:54 51°13.597 2°56.096 2.1 56 13.4 101390 97
2005-08-24 06:23:59 51°13.597 2°56.096 2.1 88 13.4 101390 97
2005-08-24 06:24:04 51°13.597 2°56.096 3.3 53 13.4 101390 97
2005-08-24 06:24:09 51°13.597 2°56.096 3.8 68 13.4 101390 97
2005-08-24 06:24:14 51°13.597 2°56.096 3 75 13.4 101390 97
2005-08-24 06:24:19 51°13.597 2°56.096 4.1 74 13.4 101390 97
2005-08-24 06:24:23 51°13.597 2°56.097 4.3 80 13.4 101390 97
2005-08-24 06:24:29 51°13.597 2°56.096 6.1 93 13.4 101390 97
2005-08-24 06:24:34 51°13.597 2°56.096 4.4 81 13.4 101390 97
2005-08-24 06:24:39 51°13.597 2°56.096 4.1 81 13.4 101390 97
2005-08-24 06:24:44 51°13.598 2°56.096 3.5 82 13.4 101390 97
2005-08-24 06:24:49 51°13.598 2°56.096 4.5 81 13.4 101390 97
2005-08-24 06:24:54 51°13.599 2°56.096 4.9 80 13.4 101390 97
2005-08-24 06:24:59 51°13.599 2°56.096 4.2 83 13.4 101390 97
2005-08-24 06:25:03 51°13.6 2°56.097 4.2 95 13.4 101390 97
2005-08-24 06:25:09 51°13.601 2°56.097 4.6 65 13.4 101390 97
2005-08-24 06:25:14 51°13.601 2°56.097 3.6 67 13.4 101390 97
2005-08-24 06:25:18 51°13.601 2°56.096 3.3 91 13.4 101390 97
2005-08-24 06:25:24 51°13.599 2°56.096 2.8 83 13.4 101390 97
2005-08-24 06:25:29 51°13.599 2°56.096 2.3 89 13.4 101390 97
2005-08-24 06:25:34 51°13.599 2°56.096 1.6 104 13.4 101390 97
2005-08-24 06:25:39 51°13.599 2°56.096 2.5 114 13.4 101390 97
2005-08-24 06:25:43 51°13.599 2°56.096 2.4 226 13.4 101390 97
2005-08-24 06:25:49 51°13.599 2°56.096 2.1 87 13.4 101390 97
2005-08-24 06:25:54 51°13.599 2°56.096 2.7 80 13.4 101390 97
2005-08-24 06:25:59 51°13.599 2°56.096 2.7 100 13.4 101390 97
2005-08-24 06:26:03 51°13.6 2°56.096 3.1 98 13.4 101390 97
2005-08-24 06:26:09 51°13.601 2°56.097 3.4 107 13.4 101390 97
2005-08-24 06:26:14 51°13.602 2°56.097 3.9 76 13.4 101390 97
2005-08-24 06:26:19 51°13.601 2°56.096 4.1 87 13.4 101390 97
2005-08-24 06:26:23 51°13.601 2°56.096 3.6 86 13.4 101390 97
2005-08-24 06:26:29 51°13.6 2°56.097 3.3 94 13.4 101390 97
2005-08-24 06:26:34 51°13.6 2°56.096 2.9 87 13.5 101390 97
2005-08-24 06:26:39 51°13.6 2°56.096 3.7 88 13.5 101390 97
2005-08-24 06:26:43 51°13.6 2°56.096 3.5 92 13.5 101390 97
2005-08-24 06:26:49 51°13.6 2°56.096 3.4 89 13.5 101390 97
2005-08-24 06:26:54 51°13.6 2°56.096 2.5 74 13.4 101390 97
2005-08-24 06:26:59 51°13.6 2°56.096 2.6 83 13.4 101390 97
2005-08-24 06:27:03 51°13.6 2°56.096 2.1 79 13.4 101390 97
2005-08-24 06:27:10 51°13.6 2°56.096 1.2 59 13.4 101390 97
2005-08-24 06:27:14 51°13.6 2°56.096 1.9 70 13.4 101390 97
2005-08-24 06:27:19 51°13.6 2°56.096 2 84 13.4 101390 97
2005-08-24 06:27:23 51°13.6 2°56.096 1.8 101 13.5 101390 97
2005-08-24 06:27:30 51°13.601 2°56.096 3.1 44 13.5 101390 97
2005-08-24 06:27:34 51°13.601 2°56.096 3.3 26 13.5 101390 97
2005-08-24 06:27:39 51°13.6 2°56.096 2.5 98 13.5 101390 97
2005-08-24 06:27:44 51°13.6 2°56.096 1.7 87 13.5 101390 97
2005-08-24 06:27:49 51°13.6 2°56.096 1.6 106 13.5 101390 97
2005-08-24 06:27:54 51°13.6 2°56.097 2.4 100 13.5 101390 97
2005-08-24 06:27:58 51°13.6 2°56.097 2.1 77 13.5 101390 97
2005-08-24 06:28:03 51°13.6 2°56.097 1.9 77 13.5 101390 97
2005-08-24 06:28:09 51°13.6 2°56.097 1.7 104 13.5 101390 97
2005-08-24 06:28:14 51°13.599 2°56.097 2.2 91 13.5 101390 97
2005-08-24 06:28:18 51°13.599 2°56.097 2 59 13.5 101390 97
2005-08-24 06:28:23 51°13.599 2°56.096 2.2 56 13.5 101390 97
2005-08-24 06:28:29 51°13.599 2°56.097 1.9 75 13.5 101390 97
2005-08-24 06:28:34 51°13.599 2°56.097 1.7 60 13.5 101390 97
2005-08-24 06:28:39 51°13.599 2°56.097 1.9 81 13.5 101390 97
2005-08-24 06:28:44 51°13.599 2°56.096 2.1 104 13.5 101390 97
2005-08-24 06:28:49 51°13.599 2°56.097 2.2 92 13.5 101390 97
2005-08-24 06:28:54 51°13.599 2°56.097 1.8 102 13.5 101390 96
2005-08-24 06:28:59 51°13.599 2°56.097 2 108 13.5 101390 96
2005-08-24 06:29:04 51°13.599 2°56.097 2.1 100 13.5 101390 96
2005-08-24 06:29:09 51°13.6 2°56.097 2.5 84 13.5 101390 96
2005-08-24 06:29:14 51°13.6 2°56.097 2.1 86 13.6 101390 96
2005-08-24 06:29:19 51°13.599 2°56.097 2.8 119 13.6 101390 96
2005-08-24 06:29:24 51°13.599 2°56.097 4.4 128 13.6 101390 96
2005-08-24 06:29:29 51°13.599 2°56.097 4.4 118 13.6 101390 96
2005-08-24 06:29:34 51°13.599 2°56.097 3.6 57 13.6 101390 96
2005-08-24 06:29:39 51°13.599 2°56.097 3.3 42 13.6 101390 96
2005-08-24 06:29:44 51°13.598 2°56.096 3.2 52 13.6 101390 96
2005-08-24 06:29:49 51°13.598 2°56.096 3 83 13.6 101390 96
2005-08-24 06:29:54 51°13.598 2°56.096 2.8 79 13.6 101390 96
2005-08-24 06:29:59 51°13.597 2°56.096 1.7 72 13.6 101390 96
2005-08-24 06:30:03 51°13.597 2°56.095 4.1 87 13.6 101390 96
2005-08-24 06:30:09 51°13.596 2°56.095 2.8 90 13.6 101390 96
2005-08-24 06:30:14 51°13.596 2°56.095 4.3 86 13.6 101390 96
2005-08-24 06:30:19 51°13.596 2°56.095 4.2 88 13.6 101390 96
2005-08-24 06:30:23 51°13.596 2°56.095 4.1 87 13.6 101390 96
2005-08-24 06:30:29 51°13.596 2°56.095 3 81 13.6 101390 96
2005-08-24 06:30:34 51°13.596 2°56.094 3.6 90 13.6 101390 96
2005-08-24 06:30:39 51°13.595 2°56.094 3.6 85 13.6 101390 96
2005-08-24 06:30:44 51°13.595 2°56.095 3.6 84 13.6 101390 96
2005-08-24 06:30:49 51°13.595 2°56.094 3.3 105 13.6 101390 96
2005-08-24 06:30:54 51°13.595 2°56.094 2.8 97 13.6 101390 96
2005-08-24 06:30:59 51°13.595 2°56.094 2.9 84 13.6 101390 96
2005-08-24 06:31:03 51°13.595 2°56.094 3.3 90 13.6 101390 96
2005-08-24 06:31:09 51°13.595 2°56.095 2.2 85 13.6 101390 96
2005-08-24 06:31:14 51°13.595 2°56.094 2 76 13.6 101390 96
2005-08-24 06:31:18 51°13.595 2°56.095 1.8 22 13.6 101390 96
2005-08-24 06:31:23 51°13.596 2°56.095 1.8 15 13.6 101390 96
2005-08-24 06:31:29 51°13.596 2°56.095 1.3 17 13.6 101390 96
2005-08-24 06:31:34 51°13.596 2°56.095 1.9 46 13.6 101390 96
2005-08-24 06:31:39 51°13.595 2°56.095 0.7 43 13.6 101390 96
2005-08-24 06:31:44 51°13.595 2°56.095 2.3 69 13.6 101390 96
2005-08-24 06:31:49 51°13.595 2°56.095 1.9 56 13.6 101390 96
2005-08-24 06:31:54 51°13.595 2°56.095 2.2 55 13.6 101390 96
2005-08-24 06:31:58 51°13.594 2°56.094 2.1 78 13.6 101390 96
2005-08-24 06:32:04 51°13.595 2°56.094 1.8 71 13.6 101400 96
2005-08-24 06:32:09 51°13.595 2°56.091 2.4 112 13.6 101400 96
2005-08-24 06:32:14 51°13.596 2°56.089 1.8 102 13.6 101390 96
2005-08-24 06:32:19 51°13.597 2°56.085 1.6 126 13.6 101390 96
2005-08-24 06:32:24 51°13.598 2°56.08 1.4 119 13.6 101390 96
2005-08-24 06:32:30 51°13.6 2°56.073 2.8 126 13.6 101390 96
2005-08-24 06:32:34 51°13.602 2°56.067 3.1 79 13.7 101390 96
2005-08-24 06:32:40 51°13.604 2°56.058 3.2 99 13.7 101390 96
2005-08-24 06:32:45 51°13.607 2°56.05 3.5 90 13.7 101390 96
2005-08-24 06:32:50 51°13.609 2°56.043 3 119 13.7 101390 96
2005-08-24 06:32:54 51°13.611 2°56.036 2.6 139 13.7 101390 96
2005-08-24 06:33:00 51°13.614 2°56.024 2.6 152 13.7 101390 96
2005-08-24 06:33:03 51°13.616 2°56.018 2.4 146 13.7 101400 96
2005-08-24 06:33:10 51°13.62 2°56.005 2.6 153 13.7 101400 96
2005-08-24 06:33:15 51°13.623 2°55.996 3.2 159 13.7 101390 96
2005-08-24 06:33:20 51°13.627 2°55.986 3 144 13.7 101390 96
2005-08-24 06:33:25 51°13.63 2°55.975 3.2 146 13.7 101390 96
2005-08-24 06:33:30 51°13.634 2°55.965 3.1 143 13.7 101390 96
2005-08-24 06:33:35 51°13.637 2°55.955 2.9 157 13.7 101390 96
2005-08-24 06:33:39 51°13.641 2°55.946 3.7 151 13.7 101390 96
2005-08-24 06:33:44 51°13.644 2°55.936 3.2 131 13.7 101390 96
2005-08-24 06:33:50 51°13.649 2°55.924 3.4 140 13.7 101390 96
2005-08-24 06:33:54 51°13.652 2°55.917 2.4 139 13.7 101390 96
2005-08-24 06:34:00 51°13.656 2°55.905 2.4 146 13.7 101390 96
2005-08-24 06:34:05 51°13.659 2°55.896 3.7 155 13.7 101390 96
2005-08-24 06:34:10 51°13.662 2°55.885 4 110 13.7 101390 96
2005-08-24 06:34:15 51°13.665 2°55.877 2 133 13.7 101390 96
2005-08-24 06:34:19 51°13.667 2°55.869 3.5 140 13.7 101390 96
2005-08-24 06:34:24 51°13.669 2°55.861 3.2 167 13.7 101400 96
2005-08-24 06:34:30 51°13.672 2°55.851 2.7 163 13.7 101400 96
2005-08-24 06:34:34 51°13.673 2°55.843 2.9 149 13.7 101390 96
2005-08-24 06:34:38 51°13.675 2°55.836 3 142 13.7 101390 96
2005-08-24 06:34:43 51°13.676 2°55.828 3.1 153 13.7 101400 96
2005-08-24 06:34:50 51°13.678 2°55.818 3.4 139 13.7 101400 96
2005-08-24 06:34:54 51°13.679 2°55.812 3.3 143 13.7 101390 96
2005-08-24 06:34:59 51°13.68 2°55.803 3.3 154 13.7 101390 96
2005-08-24 06:35:03 51°13.681 2°55.797 4.1 149 13.7 101390 96
2005-08-24 06:35:10 51°13.682 2°55.787 3.6 147 13.7 101390 96
2005-08-24 06:35:14 51°13.682 2°55.78 3.7 140 13.8 101390 96
2005-08-24 06:35:19 51°13.683 2°55.772 3.9 146 13.8 101390 96
2005-08-24 06:35:25 51°13.683 2°55.763 4.3 137 13.8 101390 96
2005-08-24 06:35:30 51°13.683 2°55.757 4 152 13.8 101390 96
2005-08-24 06:35:34 51°13.683 2°55.754 4.6 150 13.7 101390 96
2005-08-24 06:35:39 51°13.684 2°55.748 4 147 13.7 101390 96
2005-08-24 06:35:45 51°13.684 2°55.745 3 144 13.8 101390 96
2005-08-24 06:35:49 51°13.684 2°55.743 3.8 164 13.8 101390 96
2005-08-24 06:35:54 51°13.685 2°55.743 2.7 127 13.7 101390 96
2005-08-24 06:35:59 51°13.685 2°55.743 2.9 143 13.7 101390 96
2005-08-24 06:36:03 51°13.686 2°55.743 2.8 143 13.8 101390 95
2005-08-24 06:36:10 51°13.688 2°55.744 1.9 151 13.8 101390 95
2005-08-24 06:36:14 51°13.689 2°55.746 1.8 154 13.8 101390 95
2005-08-24 06:36:20 51°13.692 2°55.748 2.1 199 13.8 101390 95
2005-08-24 06:36:22 51°13.693 2°55.749 1.2 177 13.8 101390 95
2005-08-24 06:36:29 51°13.697 2°55.751 1 225 13.8 101390 95
2005-08-24 06:36:34 51°13.701 2°55.752 0.8 268 13.7 101390 95
2005-08-24 06:36:39 51°13.707 2°55.752 1.6 275 13.7 101390 95
2005-08-24 06:36:44 51°13.713 2°55.751 2.4 266 13.7 101400 95
2005-08-24 06:36:49 51°13.719 2°55.749 2.3 265 13.7 101400 95
2005-08-24 06:36:54 51°13.725 2°55.744 2.2 310 13.8 101390 95
2005-08-24 06:36:58 51°13.729 2°55.74 2.2 308 13.8 101390 95
2005-08-24 06:37:04 51°13.736 2°55.734 2.2 261 13.8 101390 95
2005-08-24 06:37:09 51°13.743 2°55.727 1.1 304 13.8 101390 95
2005-08-24 06:37:14 51°13.748 2°55.72 1 321 13.8 101400 95
2005-08-24 06:37:19 51°13.755 2°55.712 0.9 27 13.8 101400 95
2005-08-24 06:37:23 51°13.761 2°55.705 0.8 354 13.8 101390 95
2005-08-24 06:37:29 51°13.77 2°55.694 2.8 302 13.8 101390 95
2005-08-24 06:37:34 51°13.777 2°55.686 4.4 290 13.8 101390 95
2005-08-24 06:37:39 51°13.785 2°55.676 3.3 290 13.8 101390 95
2005-08-24 06:37:44 51°13.796 2°55.666 3.7 273 13.8 101390 96
2005-08-24 06:37:49 51°13.806 2°55.657 2.4 300 13.8 101390 96
2005-08-24 06:37:54 51°13.815 2°55.65 2.6 5 13.8 101390 96
2005-08-24 06:37:59 51°13.827 2°55.639 2.7 336 13.8 101390 96
2005-08-24 06:38:04 51°13.837 2°55.631 2.3 5 13.8 101390 96
2005-08-24 06:38:09 51°13.849 2°55.622 1.9 12 13.8 101390 96
2005-08-24 06:38:14 51°13.861 2°55.612 1.4 11 13.9 101390 96
2005-08-24 06:38:19 51°13.872 2°55.605 1.5 348 13.9 101390 96
2005-08-24 06:38:24 51°13.884 2°55.595 1.2 331 13.9 101390 96
2005-08-24 06:38:29 51°13.896 2°55.586 1.2 315 13.9 101390 96
2005-08-24 06:38:34 51°13.907 2°55.577 1.6 340 13.9 101390 96
2005-08-24 06:38:39 51°13.921 2°55.567 3.3 355 13.9 101390 96
2005-08-24 06:38:42 51°13.927 2°55.563 2.6 337 13.9 101390 95
2005-08-24 06:38:49 51°13.946 2°55.549 3 227 13.9 101390 95
2005-08-24 06:38:54 51°13.957 2°55.541 3.2 292 13.9 101390 95
2005-08-24 06:38:59 51°13.969 2°55.531 2.9 316 13.9 101390 95
2005-08-24 06:39:03 51°13.98 2°55.523 2.5 306 13.9 101390 95
2005-08-24 06:39:09 51°13.995 2°55.512 3 299 13.9 101390 95
2005-08-24 06:39:14 51°14.007 2°55.503 4.6 279 13.9 101390 95
2005-08-24 06:39:19 51°14.021 2°55.493 3.5 280 13.9 101390 95
2005-08-24 06:39:24 51°14.034 2°55.484 3 318 13.9 101390 95
2005-08-24 06:39:29 51°14.047 2°55.474 3.8 328 13.9 101390 95
2005-08-24 06:39:34 51°14.058 2°55.466 3.5 327 13.9 101390 95
2005-08-24 06:39:39 51°14.072 2°55.456 2.6 323 13.9 101390 95
2005-08-24 06:39:44 51°14.086 2°55.445 2.7 336 14 101390 95
2005-08-24 06:39:49 51°14.099 2°55.436 3.7 335 14 101390 95
2005-08-24 06:39:54 51°14.111 2°55.426 3.5 318 14 101390 95
2005-08-24 06:39:59 51°14.125 2°55.416 3.1 311 14 101390 95
2005-08-24 06:40:03 51°14.137 2°55.407 3.3 302 14 101390 95
2005-08-24 06:40:09 51°14.154 2°55.394 3.7 343 14 101390 95
2005-08-24 06:40:14 51°14.166 2°55.382 2.1 318 14 101390 95
2005-08-24 06:40:19 51°14.18 2°55.368 2.1 309 14 101390 95
2005-08-24 06:40:24 51°14.193 2°55.353 2.5 306 14 101390 95
2005-08-24 06:40:29 51°14.206 2°55.337 2.7 338 14 101390 95
2005-08-24 06:40:34 51°14.217 2°55.323 4.6 344 14 101380 95
2005-08-24 06:40:39 51°14.229 2°55.306 4.4 342 14 101380 95
2005-08-24 06:40:44 51°14.242 2°55.288 5.1 333 14 101380 95
2005-08-24 06:40:49 51°14.253 2°55.27 6.6 323 14 101380 95
2005-08-24 06:40:54 51°14.265 2°55.252 6.6 315 14 101380 95
2005-08-24 06:40:58 51°14.273 2°55.237 6.6 324 14 101380 95
2005-08-24 06:41:03 51°14.284 2°55.217 7.1 325 14 101380 95
2005-08-24 06:41:09 51°14.297 2°55.194 6.5 326 14 101380 95
2005-08-24 06:41:14 51°14.307 2°55.176 6.6 345 14 101380 95
2005-08-24 06:41:18 51°14.315 2°55.159 6.2 324 14 101380 95
2005-08-24 06:41:23 51°14.326 2°55.138 4.5 319 14 101370 95
2005-08-24 06:41:30 51°14.34 2°55.109 4.2 328 14 101370 95
2005-08-24 06:41:34 51°14.347 2°55.091 4.7 333 14 101370 95
2005-08-24 06:41:39 51°14.358 2°55.067 6.6 340 14 101370 95
2005-08-24 06:41:44 51°14.368 2°55.044 6.5 329 14 101370 95
2005-08-24 06:41:49 51°14.377 2°55.021 8.3 315 14 101370 95
2005-08-24 06:41:54 51°14.386 2°55 8.9 314 14 101370 95
2005-08-24 06:41:59 51°14.397 2°54.975 8.2 315 14 101370 95
2005-08-24 06:42:03 51°14.405 2°54.957 6.4 311 14 101370 95
2005-08-24 06:42:09 51°14.418 2°54.932 6.8 300 14 101370 95
2005-08-24 06:42:14 51°14.429 2°54.914 6.5 300 14 101370 95
2005-08-24 06:42:19 51°14.443 2°54.895 6.9 280 14 101370 95
2005-08-24 06:42:24 51°14.458 2°54.877 6.2 290 14 101370 95
2005-08-24 06:42:29 51°14.472 2°54.86 4.6 295 14 101370 95
2005-08-24 06:42:34 51°14.485 2°54.846 4.9 304 14 101370 94
2005-08-24 06:42:39 51°14.501 2°54.828 6.1 302 14 101370 94
2005-08-24 06:42:44 51°14.515 2°54.811 6.6 298 14 101380 94
2005-08-24 06:42:49 51°14.529 2°54.795 6.2 296 14 101380 94
2005-08-24 06:42:54 51°14.542 2°54.78 7 306 14 101370 94
2005-08-24 06:42:59 51°14.557 2°54.763 7.2 298 14 101370 94
2005-08-24 06:43:03 51°14.569 2°54.748 6.7 287 14 101360 94
2005-08-24 06:43:09 51°14.586 2°54.728 6.4 295 14 101360 94
2005-08-24 06:43:14 51°14.6 2°54.711 5.8 292 14.1 101360 94
2005-08-24 06:43:19 51°14.613 2°54.695 5.8 284 14.1 101360 94
2005-08-24 06:43:24 51°14.629 2°54.677 6.3 279 14.1 101370 95
2005-08-24 06:43:30 51°14.645 2°54.659 6.1 292 14.1 101370 95
2005-08-24 06:43:34 51°14.658 2°54.644 5.5 285 14.1 101370 94
2005-08-24 06:43:39 51°14.672 2°54.627 5.6 300 14.1 101370 94
2005-08-24 06:43:43 51°14.682 2°54.616 5.8 295 14.1 101370 95
2005-08-24 06:43:49 51°14.7 2°54.594 5.4 303 14.1 101370 95
2005-08-24 06:43:54 51°14.715 2°54.578 6.5 306 14.1 101370 95
2005-08-24 06:43:59 51°14.729 2°54.561 6.5 301 14.1 101370 95
2005-08-24 06:44:04 51°14.744 2°54.544 6.5 307 14.1 101360 95
2005-08-24 06:44:09 51°14.758 2°54.526 6.1 290 14.1 101360 95
2005-08-24 06:44:14 51°14.774 2°54.51 6 300 14.2 101370 95
2005-08-24 06:44:19 51°14.788 2°54.493 6.6 302 14.2 101370 95
2005-08-24 06:44:23 51°14.801 2°54.48 5.2 302 14.2 101370 95
2005-08-24 06:44:29 51°14.819 2°54.46 5.3 300 14.2 101370 95
2005-08-24 06:44:34 51°14.834 2°54.445 6.7 305 14.2 101370 95
2005-08-24 06:44:39 51°14.851 2°54.427 7.1 296 14.2 101370 95
2005-08-24 06:44:43 51°14.863 2°54.414 7.7 284 14.2 101360 95
2005-08-24 06:44:49 51°14.883 2°54.394 7.4 303 14.2 101360 95
2005-08-24 06:44:54 51°14.897 2°54.38 7.1 291 14.3 101370 95
2005-08-24 06:44:59 51°14.914 2°54.362 7 298 14.3 101370 95
2005-08-24 06:45:04 51°14.93 2°54.346 6.6 295 14.3 101360 95
2005-08-24 06:45:09 51°14.946 2°54.33 6.2 297 14.3 101360 95
2005-08-24 06:45:14 51°14.96 2°54.315 6.5 300 14.3 101370 95
2005-08-24 06:45:19 51°14.976 2°54.299 6.5 303 14.3 101370 95
2005-08-24 06:45:23 51°14.99 2°54.285 6.3 301 14.3 101360 95
2005-08-24 06:45:29 51°15.01 2°54.267 6.9 288 14.3 101360 95
2005-08-24 06:45:34 51°15.026 2°54.251 6.6 293 14.3 101360 95
2005-08-24 06:45:39 51°15.043 2°54.236 6.5 295 14.3 101360 95
2005-08-24 06:45:43 51°15.056 2°54.225 7.2 299 14.3 101370 95
2005-08-24 06:45:49 51°15.075 2°54.207 7.4 297 14.3 101370 95
2005-08-24 06:45:54 51°15.092 2°54.192 7 293 14.3 101370 94
2005-08-24 06:45:59 51°15.108 2°54.178 8.6 296 14.3 101370 94
2005-08-24 06:46:04 51°15.125 2°54.163 8.4 291 14.3 101370 94
2005-08-24 06:46:09 51°15.141 2°54.147 7.1 300 14.3 101370 94
2005-08-24 06:46:14 51°15.157 2°54.132 7.7 289 14.4 101370 94
2005-08-24 06:46:19 51°15.172 2°54.117 7.6 293 14.4 101370 94
2005-08-24 06:46:23 51°15.186 2°54.103 7.5 293 14.4 101370 94
2005-08-24 06:46:29 51°15.205 2°54.083 7.2 303 14.4 101370 94
2005-08-24 06:46:34 51°15.221 2°54.066 7.6 306 14.4 101370 94
2005-08-24 06:46:39 51°15.236 2°54.051 8.6 298 14.4 101370 94
2005-08-24 06:46:44 51°15.253 2°54.034 8.3 294 14.4 101370 94
2005-08-24 06:46:49 51°15.269 2°54.018 7.1 289 14.4 101370 94
2005-08-24 06:46:54 51°15.284 2°54.004 7.9 290 14.4 101370 94
2005-08-24 06:46:59 51°15.302 2°53.987 9.1 279 14.4 101370 94
2005-08-24 06:47:03 51°15.314 2°53.977 8.8 284 14.4 101370 94
2005-08-24 06:47:09 51°15.335 2°53.957 7.9 290 14.4 101370 94
2005-08-24 06:47:14 51°15.351 2°53.942 8 304 14.4 101360 94
2005-08-24 06:47:19 51°15.367 2°53.926 8 278 14.4 101360 94
2005-08-24 06:47:24 51°15.383 2°53.91 7.2 295 14.4 101360 94
2005-08-24 06:47:29 51°15.399 2°53.895 7.8 297 14.4 101360 94
2005-08-24 06:47:34 51°15.415 2°53.879 7.5 297 14.4 101360 94
2005-08-24 06:47:39 51°15.431 2°53.863 8 295 14.4 101360 94
2005-08-24 06:47:42 51°15.439 2°53.855 7.4 298 14.4 101360 94
2005-08-24 06:47:49 51°15.463 2°53.832 8.1 292 14.4 101360 94
2005-08-24 06:47:54 51°15.477 2°53.818 7.5 292 14.4 101360 94
2005-08-24 06:47:59 51°15.494 2°53.802 8.3 303 14.4 101360 94
2005-08-24 06:48:04 51°15.509 2°53.786 8.5 297 14.4 101360 94
2005-08-24 06:48:09 51°15.527 2°53.769 6.7 303 14.4 101360 94
2005-08-24 06:48:14 51°15.541 2°53.754 7.4 293 14.4 101360 94
2005-08-24 06:48:19 51°15.558 2°53.736 8.1 303 14.4 101360 94
2005-08-24 06:48:22 51°15.566 2°53.729 8 292 14.4 101360 94
2005-08-24 06:48:29 51°15.588 2°53.707 9.2 296 14.4 101360 94
2005-08-24 06:48:34 51°15.605 2°53.692 8 296 14.4 101360 94
2005-08-24 06:48:39 51°15.621 2°53.676 8.4 287 14.4 101360 94
2005-08-24 06:48:44 51°15.639 2°53.659 8 284 14.4 101350 94
2005-08-24 06:48:49 51°15.655 2°53.645 7.5 275 14.4 101350 94
2005-08-24 06:48:53 51°15.668 2°53.634 8.5 285 14.4 101360 94
2005-08-24 06:48:59 51°15.687 2°53.618 7.7 277 14.4 101360 94
2005-08-24 06:49:03 51°15.701 2°53.606 7.4 281 14.4 101360 94
2005-08-24 06:49:10 51°15.723 2°53.589 6.5 281 14.4 101360 94
2005-08-24 06:49:14 51°15.736 2°53.578 7.3 285 14.4 101360 94
2005-08-24 06:49:19 51°15.754 2°53.563 6.2 288 14.4 101360 94
2005-08-24 06:49:24 51°15.77 2°53.55 6.6 284 14.4 101360 94
2005-08-24 06:49:29 51°15.788 2°53.535 7.2 290 14.4 101360 94
2005-08-24 06:49:34 51°15.803 2°53.523 6 295 14.4 101360 94
2005-08-24 06:49:39 51°15.819 2°53.509 7.7 283 14.4 101360 94
2005-08-24 06:49:44 51°15.838 2°53.495 7 281 14.4 101360 94
2005-08-24 06:49:49 51°15.855 2°53.482 7.6 285 14.4 101360 94
2005-08-24 06:49:54 51°15.872 2°53.469 7.2 286 14.5 101360 94
2005-08-24 06:49:59 51°15.888 2°53.458 7.3 292 14.5 101360 94
2005-08-24 06:50:03 51°15.903 2°53.446 6.4 298 14.5 101360 94
2005-08-24 06:50:10 51°15.925 2°53.429 8.3 288 14.5 101360 94
2005-08-24 06:50:14 51°15.941 2°53.418 7 290 14.5 101360 94
2005-08-24 06:50:19 51°15.958 2°53.405 7.2 289 14.5 101360 94
2005-08-24 06:50:24 51°15.974 2°53.393 7.5 290 14.5 101360 94
2005-08-24 06:50:29 51°15.992 2°53.379 7.5 295 14.5 101360 94
2005-08-24 06:50:34 51°16.008 2°53.367 7.4 287 14.5 101360 94
2005-08-24 06:50:39 51°16.026 2°53.354 7.2 279 14.5 101360 94
2005-08-24 06:50:44 51°16.044 2°53.341 6.7 289 14.5 101350 94
2005-08-24 06:50:49 51°16.062 2°53.328 7.3 284 14.5 101350 94
2005-08-24 06:50:54 51°16.079 2°53.315 8.3 280 14.5 101360 94
2005-08-24 06:50:59 51°16.095 2°53.304 7.9 279 14.5 101360 94
2005-08-24 06:51:03 51°16.111 2°53.293 7.1 281 14.5 101360 94
2005-08-24 06:51:10 51°16.133 2°53.276 7.2 281 14.5 101360 94
2005-08-24 06:51:14 51°16.147 2°53.266 6.1 281 14.5 101360 94
2005-08-24 06:51:19 51°16.166 2°53.252 7.5 283 14.5 101360 94
2005-08-24 06:51:24 51°16.184 2°53.24 7 278 14.5 101360 94
2005-08-24 06:51:29 51°16.201 2°53.228 6.3 295 14.5 101360 94
2005-08-24 06:51:34 51°16.217 2°53.217 6.4 288 14.5 101360 94
2005-08-24 06:51:39 51°16.236 2°53.203 6.7 282 14.5 101360 94
2005-08-24 06:51:44 51°16.252 2°53.191 6.4 282 14.5 101360 93
2005-08-24 06:51:49 51°16.271 2°53.178 6.2 282 14.5 101360 93
2005-08-24 06:51:54 51°16.287 2°53.167 6.6 286 14.5 101360 93
2005-08-24 06:51:59 51°16.307 2°53.154 6 280 14.5 101360 93
2005-08-24 06:52:02 51°16.315 2°53.148 6.3 293 14.5 101360 94
2005-08-24 06:52:09 51°16.342 2°53.13 7.4 284 14.5 101360 94
2005-08-24 06:52:14 51°16.357 2°53.118 7 291 14.5 101350 94
2005-08-24 06:52:18 51°16.371 2°53.109 7.5 279 14.5 101350 94
2005-08-24 06:52:24 51°16.394 2°53.093 6.5 281 14.5 101360 94
2005-08-24 06:52:30 51°16.414 2°53.079 5.8 284 14.5 101360 94
2005-08-24 06:52:34 51°16.428 2°53.07 6.8 283 14.5 101350 94
2005-08-24 06:52:39 51°16.446 2°53.056 5.5 291 14.5 101350 94
2005-08-24 06:52:44 51°16.464 2°53.042 5.6 288 14.5 101350 94
2005-08-24 06:52:49 51°16.48 2°53.029 6.8 285 14.5 101350 94
2005-08-24 06:52:54 51°16.496 2°53.017 6.2 287 14.5 101350 94
2005-08-24 06:52:58 51°16.509 2°53.007 7 284 14.5 101350 94
2005-08-24 06:53:04 51°16.532 2°52.99 6.5 287 14.5 101350 94
2005-08-24 06:53:09 51°16.549 2°52.977 7.5 278 14.5 101350 94
2005-08-24 06:53:14 51°16.564 2°52.966 6.5 281 14.5 101350 94
2005-08-24 06:53:19 51°16.582 2°52.953 7.2 289 14.5 101350 94
2005-08-24 06:53:24 51°16.6 2°52.94 6.8 282 14.5 101340 94
2005-08-24 06:53:29 51°16.618 2°52.928 7.1 272 14.5 101340 94
2005-08-24 06:53:34 51°16.635 2°52.916 6.8 284 14.5 101350 94
2005-08-24 06:53:39 51°16.653 2°52.904 6.7 277 14.5 101350 94
2005-08-24 06:53:43 51°16.666 2°52.894 6.7 283 14.6 101350 94
2005-08-24 06:53:49 51°16.687 2°52.879 6.9 283 14.6 101350 94
2005-08-24 06:53:54 51°16.702 2°52.867 6.2 281 14.6 101340 94
2005-08-24 06:53:59 51°16.72 2°52.854 7.1 285 14.6 101340 94
2005-08-24 06:54:04 51°16.738 2°52.841 7.1 267 14.6 101350 94
2005-08-24 06:54:09 51°16.756 2°52.829 6.6 273 14.6 101350 94
2005-08-24 06:54:14 51°16.771 2°52.818 7.3 270 14.6 101350 94
2005-08-24 06:54:19 51°16.79 2°52.804 6.4 274 14.6 101350 94
2005-08-24 06:54:22 51°16.798 2°52.798 6.7 271 14.6 101340 94
2005-08-24 06:54:29 51°16.824 2°52.779 7.2 276 14.6 101340 94
2005-08-24 06:54:34 51°16.839 2°52.768 5.8 268 14.6 101350 94
2005-08-24 06:54:38 51°16.853 2°52.758 6.4 272 14.6 101350 94
2005-08-24 06:54:44 51°16.876 2°52.74 6.8 280 14.6 101350 94
2005-08-24 06:54:50 51°16.895 2°52.726 6.7 292 14.6 101350 94
2005-08-24 06:54:54 51°16.909 2°52.716 6.5 278 14.6 101340 94
2005-08-24 06:54:59 51°16.928 2°52.702 5.8 283 14.6 101340 94
2005-08-24 06:55:02 51°16.937 2°52.696 5.7 287 14.6 101340 94
2005-08-24 06:55:10 51°16.964 2°52.677 6.3 283 14.6 101340 94
2005-08-24 06:55:14 51°16.979 2°52.666 6.2 289 14.7 101350 94
2005-08-24 06:55:18 51°16.992 2°52.656 7.5 272 14.7 101350 94
2005-08-24 06:55:23 51°17.009 2°52.643 6.8 279 14.7 101350 94
2005-08-24 06:55:29 51°17.03 2°52.628 7 277 14.7 101350 94
2005-08-24 06:55:34 51°17.045 2°52.616 5.8 285 14.7 101340 94
2005-08-24 06:55:39 51°17.062 2°52.603 6 271 14.7 101340 94
2005-08-24 06:55:43 51°17.077 2°52.592 4.9 267 14.7 101340 94
2005-08-24 06:55:49 51°17.098 2°52.577 5 276 14.7 101340 94
2005-08-24 06:55:54 51°17.114 2°52.566 6.1 279 14.7 101340 94
2005-08-24 06:55:59 51°17.132 2°52.552 6.2 292 14.7 101340 94
2005-08-24 06:56:04 51°17.148 2°52.541 6.2 283 14.7 101340 94
2005-08-24 06:56:09 51°17.166 2°52.526 6.5 287 14.7 101340 94
2005-08-24 06:56:14 51°17.181 2°52.515 6.4 279 14.7 101350 94
2005-08-24 06:56:19 51°17.2 2°52.5 5.3 288 14.7 101350 94
2005-08-24 06:56:22 51°17.209 2°52.494 6.4 274 14.7 101350 94
2005-08-24 06:56:29 51°17.234 2°52.473 8 284 14.7 101350 94
2005-08-24 06:56:34 51°17.249 2°52.461 8.7 282 14.7 101340 94
2005-08-24 06:56:39 51°17.267 2°52.448 7.8 279 14.7 101340 94
2005-08-24 06:56:44 51°17.285 2°52.434 7.9 282 14.7 101340 94
2005-08-24 06:56:49 51°17.303 2°52.421 7.1 280 14.7 101340 94
2005-08-24 06:56:54 51°17.32 2°52.408 7.1 279 14.7 101340 94
2005-08-24 06:56:59 51°17.335 2°52.395 7.8 273 14.7 101340 94
2005-08-24 06:57:03 51°17.35 2°52.383 7.6 281 14.7 101330 94
2005-08-24 06:57:09 51°17.37 2°52.365 7.8 284 14.7 101330 94
2005-08-24 06:57:14 51°17.385 2°52.347 8.5 293 14.7 101340 94
2005-08-24 06:57:19 51°17.397 2°52.329 8.7 292 14.7 101340 94
2005-08-24 06:57:24 51°17.411 2°52.309 9.7 299 14.7 101340 94
2005-08-24 06:57:29 51°17.424 2°52.286 10.1 296 14.7 101340 94
2005-08-24 06:57:34 51°17.437 2°52.264 9.7 295 14.8 101330 94
2005-08-24 06:57:39 51°17.449 2°52.242 11.2 297 14.8 101330 94
2005-08-24 06:57:44 51°17.461 2°52.218 10.1 298 14.7 101330 93
2005-08-24 06:57:49 51°17.473 2°52.195 10.5 302 14.7 101330 93
2005-08-24 06:57:54 51°17.484 2°52.171 10.8 302 14.7 101320 93
2005-08-24 06:57:59 51°17.495 2°52.147 11.5 302 14.7 101320 93
2005-08-24 06:58:04 51°17.506 2°52.122 10.5 299 14.8 101320 93
2005-08-24 06:58:09 51°17.516 2°52.098 10.2 302 14.8 101320 93
2005-08-24 06:58:14 51°17.526 2°52.076 10.4 305 14.8 101330 94
2005-08-24 06:58:19 51°17.536 2°52.049 10.7 302 14.8 101330 94
2005-08-24 06:58:23 51°17.546 2°52.028 9.5 301 14.8 101330 94
2005-08-24 06:58:29 51°17.558 2°51.997 11.6 300 14.8 101330 94
2005-08-24 06:58:34 51°17.568 2°51.972 10.4 305 14.8 101320 94
2005-08-24 06:58:38 51°17.575 2°51.951 11.6 305 14.8 101320 94
2005-08-24 06:58:43 51°17.585 2°51.925 12.2 302 14.8 101320 93
2005-08-24 06:58:49 51°17.597 2°51.894 11.8 297 14.8 101320 93
2005-08-24 06:58:54 51°17.606 2°51.867 10.7 307 14.8 101320 93
2005-08-24 06:58:59 51°17.616 2°51.842 10.2 307 14.8 101320 93
2005-08-24 06:59:03 51°17.623 2°51.821 11.1 306 14.8 101320 94
2005-08-24 06:59:09 51°17.635 2°51.79 10.7 303 14.8 101320 94
2005-08-24 06:59:14 51°17.643 2°51.766 11.4 301 14.8 101320 93
2005-08-24 06:59:18 51°17.651 2°51.742 10 296 14.8 101320 93
2005-08-24 06:59:24 51°17.661 2°51.71 8.8 300 14.8 101320 93
2005-08-24 06:59:29 51°17.67 2°51.684 10.6 305 14.8 101320 93
2005-08-24 06:59:34 51°17.679 2°51.657 10 302 14.8 101320 93
2005-08-24 06:59:39 51°17.688 2°51.631 10.6 304 14.8 101320 93
2005-08-24 06:59:43 51°17.695 2°51.609 10.2 302 14.8 101320 93
2005-08-24 06:59:49 51°17.706 2°51.578 9.1 303 14.8 101320 93
2005-08-24 06:59:54 51°17.715 2°51.554 9.6 309 14.9 101320 93
2005-08-24 06:59:59 51°17.724 2°51.527 10.5 307 14.9 101320 93
2005-08-24 07:00:04 51°17.734 2°51.498 10 303 14.9 101320 94
2005-08-24 07:00:09 51°17.742 2°51.471 10.1 306 14.9 101320 94
2005-08-24 07:00:14 51°17.752 2°51.445 11.6 310 14.9 101330 94
2005-08-24 07:00:19 51°17.761 2°51.418 11.1 303 14.9 101330 94
2005-08-24 07:00:24 51°17.77 2°51.392 9.5 305 14.9 101320 94
2005-08-24 07:00:29 51°17.779 2°51.365 9.8 307 14.9 101320 94
2005-08-24 07:00:34 51°17.788 2°51.338 10.1 304 15 101320 94
2005-08-24 07:00:39 51°17.796 2°51.314 10.3 308 15 101320 94
2005-08-24 07:00:44 51°17.806 2°51.285 10.9 303 14.9 101320 94
2005-08-24 07:00:50 51°17.816 2°51.256 10 310 14.9 101320 94
2005-08-24 07:00:54 51°17.825 2°51.232 10.8 306 15 101320 94
2005-08-24 07:00:58 51°17.832 2°51.21 10.8 303 15 101320 94
2005-08-24 07:01:04 51°17.842 2°51.178 10.3 299 15 101320 94
2005-08-24 07:01:09 51°17.852 2°51.151 10.6 307 15 101320 94
2005-08-24 07:01:14 51°17.861 2°51.124 10.6 304 15 101320 94
2005-08-24 07:01:18 51°17.867 2°51.105 10.5 304 15 101320 94
2005-08-24 07:01:24 51°17.879 2°51.071 10.6 303 15 101320 94
2005-08-24 07:01:30 51°17.889 2°51.042 10.5 312 15 101320 94
2005-08-24 07:01:34 51°17.896 2°51.017 11.1 309 15 101320 94
2005-08-24 07:01:38 51°17.904 2°50.996 11.7 307 15 101320 94
2005-08-24 07:01:42 51°17.91 2°50.977 11.5 308 15 101320 94
2005-08-24 07:01:50 51°17.924 2°50.934 12.1 310 15 101320 94
2005-08-24 07:01:54 51°17.931 2°50.913 11.6 309 15 101320 94
2005-08-24 07:01:59 51°17.941 2°50.883 11.7 308 15 101320 94
2005-08-24 07:02:02 51°17.946 2°50.867 12.1 308 15 101310 94
2005-08-24 07:02:09 51°17.958 2°50.829 11.8 307 15 101310 94
2005-08-24 07:02:14 51°17.966 2°50.804 11.9 307 15 101320 94
2005-08-24 07:02:19 51°17.974 2°50.777 12.1 307 15 101320 94
2005-08-24 07:02:23 51°17.981 2°50.753 11.9 314 15 101310 93
2005-08-24 07:02:29 51°17.991 2°50.72 11.1 311 15 101310 93
2005-08-24 07:02:34 51°17.998 2°50.692 11.6 315 15 101320 93
2005-08-24 07:02:39 51°18.006 2°50.665 11.5 311 15 101320 93
2005-08-24 07:02:43 51°18.013 2°50.643 11.4 313 15 101320 93
2005-08-24 07:02:49 51°18.023 2°50.61 11.3 311 15 101320 93
2005-08-24 07:02:54 51°18.031 2°50.583 11.1 314 15 101320 93
2005-08-24 07:02:59 51°18.039 2°50.556 12.2 307 15 101320 93
2005-08-24 07:03:04 51°18.047 2°50.528 10.4 308 15 101320 93
2005-08-24 07:03:09 51°18.054 2°50.501 10.8 307 15 101320 93
2005-08-24 07:03:14 51°18.062 2°50.473 12.5 304 15 101320 93
2005-08-24 07:03:19 51°18.069 2°50.448 11.6 307 15 101320 93
2005-08-24 07:03:24 51°18.078 2°50.419 11.2 309 15 101310 93
2005-08-24 07:03:29 51°18.086 2°50.391 13.2 313 15 101310 93
2005-08-24 07:03:34 51°18.094 2°50.364 12.2 310 15.1 101320 93
2005-08-24 07:03:39 51°18.102 2°50.336 11.4 315 15.1 101320 93
2005-08-24 07:03:43 51°18.108 2°50.315 12.6 305 15.1 101310 93
2005-08-24 07:03:49 51°18.118 2°50.282 10.9 43 15.1 101310 93
2005-08-24 07:03:54 51°18.126 2°50.254 10.4 229 15.1 101320 93
2005-08-24 07:03:59 51°18.134 2°50.227 11.6 310 15.1 101320 93
2005-08-24 07:04:04 51°18.142 2°50.2 12.3 314 15.1 101320 93
2005-08-24 07:04:09 51°18.15 2°50.173 12.4 310 15.1 101320 93
2005-08-24 07:04:14 51°18.158 2°50.145 11.9 311 15.1 101320 93
2005-08-24 07:04:19 51°18.166 2°50.118 12.6 308 15.1 101320 93
2005-08-24 07:04:24 51°18.173 2°50.091 12 229 15.1 101320 94
2005-08-24 07:04:29 51°18.18 2°50.066 11.9 311 15.1 101320 94
2005-08-24 07:04:34 51°18.189 2°50.036 12.4 312 15.1 101310 94
2005-08-24 07:04:39 51°18.197 2°50.009 11.5 312 15.1 101310 94
2005-08-24 07:04:42 51°18.201 2°49.995 12.6 310 15.2 101310 93
2005-08-24 07:04:49 51°18.213 2°49.954 11.6 307 15.2 101310 93
2005-08-24 07:04:54 51°18.22 2°49.93 12.2 310 15.1 101310 93
2005-08-24 07:04:59 51°18.23 2°49.899 12.7 314 15.1 101310 93
2005-08-24 07:05:04 51°18.238 2°49.872 12.9 312 15.1 101310 93
2005-08-24 07:05:09 51°18.245 2°49.845 12.5 309 15.1 101310 93
2005-08-24 07:05:14 51°18.252 2°49.82 13.6 308 15.2 101320 93
2005-08-24 07:05:19 51°18.26 2°49.792 13 309 15.2 101320 93
2005-08-24 07:05:24 51°18.269 2°49.763 11.8 314 15.2 101320 93
2005-08-24 07:05:29 51°18.277 2°49.736 11.6 314 15.2 101320 93
2005-08-24 07:05:34 51°18.285 2°49.708 12 309 15.2 101310 93
2005-08-24 07:05:38 51°18.291 2°49.686 12.5 308 15.2 101310 93
2005-08-24 07:05:44 51°18.301 2°49.654 12.5 307 15.2 101320 93
2005-08-24 07:05:50 51°18.31 2°49.624 10.7 304 15.2 101320 93
2005-08-24 07:05:54 51°18.317 2°49.599 13.2 312 15.2 101320 93
2005-08-24 07:05:59 51°18.325 2°49.574 12.5 303 15.2 101320 93
2005-08-24 07:06:03 51°18.332 2°49.55 12.4 308 15.2 101310 93
2005-08-24 07:06:09 51°18.341 2°49.517 12.3 313 15.2 101310 93
2005-08-24 07:06:14 51°18.348 2°49.492 14.9 309 15.2 101320 93
2005-08-24 07:06:19 51°18.356 2°49.465 12.9 309 15.2 101320 93
2005-08-24 07:06:23 51°18.363 2°49.441 12.4 309 15.2 101320 93
2005-08-24 07:06:29 51°18.372 2°49.408 12.9 306 15.2 101320 93
2005-08-24 07:06:34 51°18.381 2°49.381 12.6 307 15.2 101320 93
2005-08-24 07:06:38 51°18.387 2°49.359 12.3 308 15.2 101320 93
2005-08-24 07:06:43 51°18.395 2°49.332 12.2 304 15.2 101320 93
2005-08-24 07:06:49 51°18.405 2°49.299 11.4 307 15.2 101320 93
2005-08-24 07:06:54 51°18.413 2°49.272 12.3 303 15.2 101320 93
2005-08-24 07:06:59 51°18.421 2°49.245 13.1 310 15.2 101320 93
2005-08-24 07:07:03 51°18.428 2°49.223 11.9 306 15.2 101320 93
2005-08-24 07:07:09 51°18.437 2°49.19 11.9 310 15.2 101320 93
2005-08-24 07:07:14 51°18.444 2°49.166 12.2 309 15.2 101330 93
2005-08-24 07:07:18 51°18.451 2°49.141 11.2 307 15.2 101330 93
2005-08-24 07:07:22 51°18.458 2°49.119 11.3 314 15.2 101330 93
2005-08-24 07:07:29 51°18.469 2°49.081 12.3 311 15.2 101330 93
2005-08-24 07:07:34 51°18.476 2°49.056 10.7 308 15.2 101320 93
2005-08-24 07:07:39 51°18.484 2°49.028 11.9 311 15.2 101320 93
2005-08-24 07:07:44 51°18.493 2°48.999 11.4 308 15.3 101320 93
2005-08-24 07:07:50 51°18.502 2°48.969 11.6 311 15.3 101320 93
2005-08-24 07:07:54 51°18.51 2°48.944 12 310 15.2 101320 93
2005-08-24 07:07:59 51°18.518 2°48.917 12.2 312 15.2 101320 93
2005-08-24 07:08:04 51°18.526 2°48.889 12.2 310 15.2 101330 93
2005-08-24 07:08:10 51°18.534 2°48.859 12.3 310 15.2 101330 93
2005-08-24 07:08:14 51°18.541 2°48.834 12 227 15.2 101320 93
2005-08-24 07:08:19 51°18.548 2°48.809 13.2 315 15.2 101320 93
2005-08-24 07:08:23 51°18.555 2°48.786 12.6 228 15.3 101320 93
2005-08-24 07:08:29 51°18.565 2°48.751 11.8 42 15.3 101320 93
2005-08-24 07:08:34 51°18.572 2°48.723 12.5 42 15.3 101320 93
2005-08-24 07:08:38 51°18.578 2°48.703 12.9 311 15.3 101320 93
2005-08-24 07:08:44 51°18.587 2°48.669 13.7 309 15.3 101330 93
2005-08-24 07:08:50 51°18.597 2°48.637 12.9 310 15.3 101330 93
2005-08-24 07:08:54 51°18.603 2°48.615 12.9 308 15.3 101330 93
2005-08-24 07:08:59 51°18.612 2°48.585 12.2 308 15.3 101330 93
2005-08-24 07:09:02 51°18.617 2°48.568 11.2 312 15.3 101320 93
2005-08-24 07:09:09 51°18.628 2°48.529 13.1 311 15.3 101320 93
2005-08-24 07:09:14 51°18.636 2°48.501 11.8 313 15.3 101320 92
2005-08-24 07:09:18 51°18.641 2°48.481 12.5 314 15.3 101320 92
2005-08-24 07:09:24 51°18.651 2°48.445 13.1 310 15.3 101320 92
2005-08-24 07:09:29 51°18.659 2°48.417 13.1 311 15.3 101320 92
2005-08-24 07:09:34 51°18.667 2°48.389 13.6 308 15.3 101320 92
2005-08-24 07:09:38 51°18.673 2°48.367 12.4 308 15.3 101320 92
2005-08-24 07:09:42 51°18.679 2°48.348 12.7 309 15.3 101330 93
2005-08-24 07:09:49 51°18.691 2°48.307 11.1 307 15.3 101330 93
2005-08-24 07:09:54 51°18.698 2°48.282 11 232 15.3 101320 93
2005-08-24 07:09:59 51°18.706 2°48.251 12.3 314 15.3 101320 93
2005-08-24 07:10:04 51°18.713 2°48.223 12.2 309 15.3 101320 92
2005-08-24 07:10:09 51°18.721 2°48.195 12.6 229 15.3 101320 92
2005-08-24 07:10:14 51°18.728 2°48.17 11.1 311 15.3 101320 92
2005-08-24 07:10:19 51°18.736 2°48.14 11.2 311 15.3 101320 92
2005-08-24 07:10:24 51°18.744 2°48.112 12.1 308 15.3 101330 93
2005-08-24 07:10:30 51°18.752 2°48.081 11.6 312 15.3 101330 93
2005-08-24 07:10:34 51°18.76 2°48.057 12.5 313 15.4 101330 93
2005-08-24 07:10:38 51°18.766 2°48.035 12.9 309 15.4 101330 93
2005-08-24 07:10:42 51°18.772 2°48.015 14.1 308 15.4 101330 93
2005-08-24 07:10:50 51°18.784 2°47.971 12.5 309 15.4 101330 93
2005-08-24 07:10:54 51°18.79 2°47.948 13.7 229 15.4 101330 93
2005-08-24 07:10:59 51°18.799 2°47.918 14.2 313 15.4 101330 93
2005-08-24 07:11:04 51°18.807 2°47.891 12.5 313 15.4 101320 93
2005-08-24 07:11:09 51°18.815 2°47.863 14.1 314 15.4 101320 93
2005-08-24 07:11:14 51°18.822 2°47.836 14.5 315 15.4 101330 93
2005-08-24 07:11:19 51°18.829 2°47.81 13.4 314 15.4 101330 93
2005-08-24 07:11:23 51°18.837 2°47.786 14.2 228 15.4 101320 93
2005-08-24 07:11:30 51°18.847 2°47.75 14.6 313 15.4 101320 93
2005-08-24 07:11:34 51°18.854 2°47.726 12.9 308 15.4 101320 92
2005-08-24 07:11:39 51°18.862 2°47.7 11.7 309 15.4 101320 92
2005-08-24 07:11:44 51°18.87 2°47.67 14 228 15.4 101310 92
2005-08-24 07:11:49 51°18.878 2°47.643 13.6 314 15.4 101310 92
2005-08-24 07:11:54 51°18.885 2°47.618 13.7 309 15.4 101310 92
2005-08-24 07:11:59 51°18.894 2°47.588 13.8 309 15.4 101310 92
2005-08-24 07:12:04 51°18.901 2°47.56 13.3 310 15.4 101310 92
2005-08-24 07:12:09 51°18.91 2°47.533 12.8 231 15.4 101310 92
2005-08-24 07:12:14 51°18.917 2°47.508 13.5 311 15.4 101310 92
2005-08-24 07:12:19 51°18.925 2°47.481 13.4 307 15.4 101310 92
2005-08-24 07:12:24 51°18.933 2°47.451 13 314 15.4 101310 92
2005-08-24 07:12:30 51°18.942 2°47.421 12.7 309 15.4 101310 92
2005-08-24 07:12:34 51°18.949 2°47.396 12.9 309 15.4 101320 92
2005-08-24 07:12:38 51°18.955 2°47.374 13.2 312 15.4 101320 92
2005-08-24 07:12:44 51°18.965 2°47.341 11.9 310 15.4 101320 92
2005-08-24 07:12:50 51°18.973 2°47.311 11.6 315 15.4 101320 92
2005-08-24 07:12:54 51°18.981 2°47.286 13.4 310 15.4 101320 92
2005-08-24 07:12:58 51°18.987 2°47.265 12 314 15.4 101320 92
2005-08-24 07:13:02 51°18.993 2°47.243 12.2 314 15.5 101320 92
2005-08-24 07:13:10 51°19.005 2°47.202 13.1 313 15.5 101320 92
2005-08-24 07:13:14 51°19.011 2°47.18 13.7 314 15.5 101330 92
2005-08-24 07:13:19 51°19.02 2°47.15 12.8 306 15.5 101330 92
2005-08-24 07:13:22 51°19.025 2°47.134 13.8 309 15.5 101320 92
2005-08-24 07:13:30 51°19.037 2°47.093 13.6 226 15.5 101320 92
2005-08-24 07:13:34 51°19.043 2°47.071 13.1 314 15.5 101320 92
2005-08-24 07:13:38 51°19.05 2°47.047 12.5 312 15.5 101320 92
2005-08-24 07:13:44 51°19.059 2°47.014 13 230 15.5 101320 92
2005-08-24 07:13:49 51°19.067 2°46.986 12.2 314 15.5 101320 92
2005-08-24 07:13:54 51°19.074 2°46.962 12.7 314 15.5 101320 92
2005-08-24 07:13:58 51°19.081 2°46.94 12.2 313 15.5 101320 92
2005-08-24 07:14:04 51°19.091 2°46.904 14.2 312 15.5 101320 92
2005-08-24 07:14:09 51°19.099 2°46.877 14 311 15.5 101320 92
2005-08-24 07:14:14 51°19.106 2°46.852 13.2 305 15.5 101320 92
2005-08-24 07:14:18 51°19.112 2°46.83 12.8 312 15.5 101320 92
2005-08-24 07:14:24 51°19.122 2°46.794 12.7 315 15.5 101320 92
2005-08-24 07:14:29 51°19.13 2°46.767 13.1 317 15.5 101320 92
2005-08-24 07:14:34 51°19.138 2°46.742 14.5 228 15.5 101310 92
2005-08-24 07:14:39 51°19.146 2°46.712 13.1 310 15.5 101310 92
2005-08-24 07:14:44 51°19.155 2°46.684 12.6 309 15.5 101320 92
2005-08-24 07:14:49 51°19.163 2°46.657 13 313 15.5 101320 92
2005-08-24 07:14:54 51°19.17 2°46.632 12.3 227 15.6 101320 92
2005-08-24 07:14:59 51°19.179 2°46.604 14.2 312 15.6 101320 92
2005-08-24 07:15:04 51°19.187 2°46.574 13.2 313 15.5 101310 92
2005-08-24 07:15:09 51°19.195 2°46.547 12.7 313 15.5 101310 92
2005-08-24 07:15:14 51°19.204 2°46.519 13.3 311 15.5 101320 92
2005-08-24 07:15:19 51°19.212 2°46.491 12.4 311 15.5 101320 92
2005-08-24 07:15:23 51°19.218 2°46.469 12.4 313 15.5 101320 92
2005-08-24 07:15:29 51°19.228 2°46.436 14 312 15.5 101320 92
2005-08-24 07:15:34 51°19.236 2°46.408 13.3 310 15.5 101320 92
2005-08-24 07:15:39 51°19.244 2°46.383 12.6 310 15.5 101320 92